Regional Weather Roundup
Issued by NWS Mt. Holly, NJ

Home | Current Version | Previous Version | Text Only | Print | Product List | Glossary On
Versions: 1 2 3 4 5 6 7 8 9 10 11 12 13 14 15 16 17 18 19 20 21 22 23 24 25 26 27 28 29 30 31 32 33 34 35 36 37 38 39 40 41 42 43 44 45 46 47 48 49 50
000
ASUS41 KPHI 202210
RWRPHI

REGIONAL WEATHER ROUNDUP
NATIONAL WEATHER SERVICE MOUNT HOLLY NJ
500 PM EST SAT DEC 20 2014

NOTE:  "FAIR" INDICATES FEW OR NO CLOUDS BELOW 12,000 FEET WITH NO
SIGNIFICANT WEATHER AND/OR OBSTRUCTIONS TO VISIBILITY.

 * = STATION DOES NOT REPORT PRECIPITATION (E.G. RAIN, SNOW, ETC.)
        OR FOG.

NJZ015>026-202300-
SOUTHERN NEW JERSEY

CITY           SKY/WX    TMP DP  RH WIND       PRES   REMARKS
POMONA         CLOUDY    33  21  61 NW6       30.28R WCI  28
RIO GRANDE*    PTCLDY    34  21  60 CALM      30.27R
MILLVILLE      PTCLDY    29  22  75 CALM      30.28R
WRIGHTSTOWN    CLOUDY    31  21  66 N5        30.25R WCI  27
MOUNT HOLLY    CLOUDY    32  21  64 CALM      30.28R
TRENTON        CLOUDY    32  20  61 CALM      30.27R

$$
NJZ001>014-202300-
NORTHERN NEW JERSEY

CITY           SKY/WX    TMP DP  RH WIND       PRES   REMARKS
SUSSEX         CLOUDY    30  20  66 CALM      30.25R
ANDOVER*         N/A     29  19  66 VRB3      30.25S
MORRISTOWN     CLOUDY    32  23  69 NW5       30.27S WCI  27
NEWARK         CLOUDY    33  21  61 VRB6      30.28R WCI  28
TETERBORO      CLOUDY    33  20  58 N3        30.27R
CALDWELL       CLOUDY    32  20  61 N3        30.27S
SOMERVILLE     CLOUDY    33  20  58 N5        30.26S WCI  29
ALLAIRE*       CLOUDY    32  18  55 N8        30.26S WCI  25
TOMS RIVER*    CLOUDY    32  21  64 NW6       30.28R WCI  26

$$
PAZ043-044-047-054-055-060>062-066>071-202300-
EASTERN PENNSYLVANIA

CITY           SKY/WX    TMP DP  RH WIND       PRES   REMARKS
PHILADELPHIA   CLOUDY    35  21  56 NW5       30.29R WCI  31
NORTH PHILA    CLOUDY    34  20  56 NE3       30.29R
BLUE BELL      CLOUDY    34  23  64 CALM      30.26R
DOYLESTOWN     CLOUDY    31  22  69 CALM      30.26R
QUAKERTOWN*    CLOUDY    32  23  69 CALM      30.26R
POTTSTOWN      CLOUDY    33  21  61 CALM      30.28R
LANCASTER      CLOUDY    33  20  58 CALM      30.26R
COATESVILLE    CLOUDY    32  23  69 CALM      30.26R
READING        CLOUDY    33  20  58 NE3       30.26R
ALLENTOWN      CLOUDY    33  22  63 CALM      30.26R
MOUNT POCONO   CLOUDY    26  18  71 N3        30.17R
HAZLETON       CLOUDY    28  21  74 CALM      30.22S
WILKES BARRE   CLOUDY    31  20  63 NW5       30.23R WCI  26

$$
DEZALL-MDZ008-012-015-019-020-202300-
DELAWARE AND EASTERN MARYLAND

CITY           SKY/WX    TMP DP  RH WIND       PRES   REMARKS
WILMINGTON     MOCLDY    35  21  56 CALM      30.29R
DOVER          CLOUDY    33  24  70 E2        30.26R
GEORGETOWN     MOCLDY    35  25  66 N5        30.28R WCI  31
EASTON         MOCLDY    37  27  65 CALM      30.31R
PATUXENT       CLOUDY    35  23  61 CALM      30.28R
OCEAN CITY     CLOUDY    36  25  64 CALM      30.27S
WALLOPS ISLAND PTCLDY    35  25  66 CALM      30.28R
CAMBRIDGE      MOCLDY    37  27  65 CALM      30.27S
SALISBURY      CLOUDY    38  25  59 W5        30.27S WCI  34

$$
PAZ001-021-NYZ056-072-MDZ011-DCZ001-202300-
OTHER NEARBY LOCATIONS

CITY           SKY/WX    TMP DP  RH WIND       PRES   REMARKS
HARRISBURG     MOCLDY    29  20  69 NW5       30.27R WCI  24
STATE COLLEGE  CLOUDY    28  21  74 CALM      30.22R
WILLIAMSPORT   CLOUDY    32  20  61 SW3       30.26R
BINGHAMTON     CLOUDY    25  19  78 CALM      30.19R
NEW YORK CITY  CLOUDY    33  20  58 NE5       30.28S WCI  29
BALTIMORE      MOCLDY    35  21  56 CALM      30.27R
WASHINGTON DC  CLOUDY    38  20  48 SW6       30.29R WCI  33

$$



USA.gov is the U.S. government's official web portal to all federal, state and local government web resources and services.